Location: Daisendorf
(47.7109°N, 9.2702°E)
Time: 20:03:59
(UTC+00:00)

Daily predictions for brighter satellites

Satellite Brightness Start Highest point End
(mag) Time Altitude Azimuth Time Altitude Azimuth Time Altitude Azimuth
NOSS 3-3 (C) 4.0 17:41:35 10° SSW 17:46:40 48° ESE 17:52:37 10° NE
Cosmos 2237 Rocket 2.2 17:43:51 10° SSW 17:49:26 70° ESE 17:55:02 10° NNE
NOAA 6 4.1 17:44:24 10° SSE 17:49:32 87° WSW 17:54:42 10° NNW
CZ-4B R/B 4.0 17:45:29 10° SE 17:49:53 38° ENE 17:54:24 10° N
Cosmos 1766 Rocket 3.6 17:45:55 10° S 17:50:18 87° E 17:54:45 10° N
Cosmos 1570 Rocket 4.1 17:45:15 10° S 17:50:23 55° ESE 17:55:30 10° NNE
Cosmos 1125 Rocket 3.5 17:46:23 10° NNW 17:51:36 76° ENE 17:56:49 10° SSE
Cosmos 1726 3.9 17:49:21 10° SW 17:51:46 28° WNW 17:54:12 10° NNW
In-Cosmos 22 4.4 17:47:41 10° N 17:53:10 50° ENE 17:58:29 10° SSE
USA 267 3.9 17:47:42 10° NE 17:54:06 58° NNW 18:00:31 10° W
USA 186 3.8 17:53:05 10° E 17:54:42 13° ENE 17:56:20 10° NE
SJ-6B 3.5 17:51:57 10° SE 17:55:06 30° ENE 17:58:17 10° N
Cosmos 1943 Rocket 2.3 17:49:41 10° NNW 17:55:15 86° WSW 18:00:47 10° SSE
Okean 3 Rocket 3.7 17:51:11 10° S 17:55:30 52° E 17:59:47 10° NNE
KORONAS-FOTON 3.8 17:52:17 10° N 17:55:59 83° W 17:59:38 10° S
Cosmos 2150 Rocket 4.3 17:51:11 10° NNW 17:56:09 45° ENE 18:01:05 10° SE
Iridium 4 Rocket 3.1 17:52:14 10° N 17:56:25 85° W 18:00:46 10° S
NOSS 3-3 (A) 3.8 17:51:28 10° SSW 17:56:42 60° ESE 18:02:50 10° NE
Cosmos 1408 Rocket 4.2 17:53:42 10° SSE 17:57:38 33° E 18:01:35 10° NNE
SL-08 R/B 3.9 17:54:18 10° NNE 17:58:51 36° E 18:03:20 10° SSE
Cosmos 2298 Rocket 4.3 17:54:06 10° NNW 17:59:15 49° ENE 18:04:23 10° SE
Cosmos 158 Rocket 3.8 17:56:51 10° S 18:01:38 60° ESE 18:06:27 10° NNE
SeaSat 1 2.4 17:57:11 10° NE 18:02:05 64° ESE 18:06:56 10° SSW
Helios 1A 3.9 17:59:09 10° NE 18:02:37 26° E 18:06:02 10° SSE
Cosmos 1513 Rocket 4.4 17:57:49 10° S 18:03:50 69° E 18:09:58 10° NNE
Sich 1 3.9 18:01:13 10° SSE 18:04:51 27° E 18:08:31 10° NNE
Okean O Rocket 3.4 18:03:55 10° E 18:06:28 15° ENE 18:09:01 10° NNE
Cosmos 1328 Rocket 4.4 18:02:55 10° NNW 18:07:08 53° W 18:11:20 10° S
Tiangong 0.0 18:05:24 10° SSW 18:07:14 15° SSE 18:09:05 10° ESE
COSMO-SKYMED 1 3.6 18:03:23 10° N 18:07:37 52° WNW 18:11:49 10° SSW
Cosmos 1656 Rocket 4.3 18:03:39 10° NNW 18:08:55 38° NE 18:14:05 10° ESE
Cosmos 1607 4.3 18:03:40 10° S 18:09:46 46° ESE 18:15:52 10° NE
Cosmos 2297 4.4 18:05:10 10° NNW 18:10:20 35° NE 18:15:21 11° ESE
Aureole 3 Rocket 4.1 18:06:16 10° SSE 18:11:02 30° E 18:14:44 10° NNE
Meteor 1-4 Rocket 4.4 18:10:49 10° NW 18:13:01 24° W 18:15:13 10° SSW
Helios 1B rocket 3.0 18:11:22 10° S 18:15:08 57° WSW 18:18:57 10° NNW
Cosmos 2369 Rocket 3.1 18:10:01 10° NNW 18:15:09 33° NE 18:19:40 13° ESE
CZ-4 R/B 1.9 18:11:45 10° SE 18:15:20 37° ENE 18:19:01 10° N
DMSP B5D1-3 4.5 18:10:49 10° NNE 18:15:52 64° ESE 18:20:54 10° S
GRACE-FO 2 4.5 18:12:26 10° SSE 18:15:52 58° E 18:19:21 10° N
Cosmos 1464 Rocket 4.0 18:11:33 10° S 18:17:49 68° E 18:24:11 10° NNE
TRACE 4.3 18:14:42 10° NNE 18:18:04 69° ESE 18:21:23 10° S
ARIANE 6 FM1 Upper Stage 4.2 18:16:55 10° SSE 18:19:45 17° ESE 18:21:45 13° E
Cosmos 1980 4.1 18:14:35 10° SW 18:20:14 68° WNW 18:25:56 10° NNE
NOSS 3-4 (A) 4.0 18:15:07 10° NW 18:21:42 56° NE 18:28:32 13° ESE
NOSS 3-4 (C) 4.1 18:15:13 10° NW 18:21:48 56° NE 18:28:36 13° ESE
CZ-4B R/B 3.2 18:21:13 10° SE 18:25:04 46° ENE 18:29:06 10° N
Meteor 1-13 Rocket 4.3 18:21:43 10° N 18:27:35 86° E 18:33:15 10° SSE
Cosmos 1805 Rocket 3.8 18:24:28 10° SSE 18:28:34 44° E 18:32:43 10° NNE
Cosmos 2228 Rocket 4.3 18:26:50 10° NNE 18:30:34 24° ENE 18:32:38 18° ESE
Cosmos 1441 Rocket 4.2 18:29:41 16° SE 18:31:21 22° E 18:34:10 10° NE
Cosmos 2084 Rocket 4.2 18:29:50 10° S 18:33:37 30° ESE 18:37:01 11° ENE
Resurs 01 Rocket 2.0 18:30:24 11° SE 18:34:27 44° ENE 18:38:40 10° N
Cosmos 1975 3.5 18:31:04 10° SSE 18:34:28 30° E 18:37:55 10° NNE
Okean-O 4.1 18:39:42 18° E 18:40:44 19° ENE 18:43:49 10° NNE
Cosmos 2034 Rocket 3.9 18:38:52 10° S 18:45:00 74° E 18:51:09 10° NNE
Cosmos 1707 Rocket 4.4 18:42:36 10° N 18:46:32 30° ENE 18:47:57 25° ESE
Meteor PRIRODA 3.6 18:43:18 10° S 18:46:33 68° WSW 18:49:50 10° NNW
USA 306 3.6 18:44:06 10° NW 18:47:05 32° NNE 18:48:52 20° ENE
ISS -2.8 18:44:11 10° WNW 18:47:24 40° N 18:49:13 21° ENE
Cosmos 1666 Rocket 4.4 18:51:16 26° E 18:51:36 26° E 18:55:14 10° NNE
ACS3 Solar Sail 2.1 18:48:36 15° SE 18:53:44 51° ENE 18:59:54 10° N
SL-16 R/B 2.1 18:49:20 10° SSW 18:54:57 71° ESE 19:00:36 10° NNE
Cosmos 1315 Rocket 3.8 18:53:41 10° NNW 18:57:31 47° W 19:01:19 10° S
Cosmos 1805 3.1 18:53:58 10° SSW 18:57:36 81° W 19:01:17 10° N
SPOT 1/Viking Rocket 4.4 19:00:59 10° S 19:05:58 49° W 19:10:58 10° NNW
Cosmos 1943 3.8 19:07:43 31° ESE 19:08:00 31° ESE 19:12:53 10° NE
Meteor 1-11 Rocket 4.4 19:02:38 10° SSW 19:08:04 54° WNW 19:13:30 10° N
Okean 3 3.9 19:04:09 10° N 19:08:06 39° ENE 19:08:32 38° E
ATLAS CENTAUR R/B 3.9 19:05:57 10° WNW 19:08:32 18° NNW 19:11:12 10° NNE
SL-14 R/B 3.4 19:06:04 10° NNW 19:09:53 69° W 19:12:47 17° S
Cosmos 783 Rocket 4.4 19:05:40 10° SSW 19:10:53 70° ESE 19:16:07 10° NNE
ATLAS 2AS CENTAUR R/B 4.4 19:06:03 10° NW 19:11:20 22° N 19:16:25 10° ENE
PSLV R/B 4.4 19:14:51 33° NE 19:14:51 33° NE 19:17:28 10° N
Meteor 1-21 4.2 19:09:16 10° N 19:15:05 87° ENE 19:19:45 16° SSE
CSL-04 Rocket 3.5 19:11:58 18° SSE 19:15:58 88° ENE 19:21:17 10° NNW
CZ-4B R/B 3.2 19:13:15 15° SSE 19:17:49 83° WSW 19:23:10 10° NNW
Cosmos 2263 4.2 19:13:37 10° NNW 19:19:19 66° ENE 19:21:32 37° SE
USA 186 3.0 19:24:41 26° SSW 19:26:03 41° W 19:29:08 10° NNW
Cosmos 2237 Rocket 4.4 19:29:27 10° W 19:34:01 25° NW 19:38:37 10° N
USA 267 4.3 19:31:14 14° ENE 19:36:27 40° N 19:42:28 10° WNW
Cosmos 2026 Rocket 4.4 19:31:30 10° NNW 19:37:36 62° W 19:43:32 10° S
Cosmos 1766 3.7 19:41:43 47° N 19:41:43 47° N 19:44:27 10° N
Cosmos 2266 Rocket 4.3 19:36:00 10° N 19:42:04 46° ENE 19:42:49 44° E
Okean O Rocket 1.7 19:41:03 48° S 19:42:11 73° WSW 19:46:36 10° NNW
GEOS 3 Rocket 3.5 19:41:58 53° SE 19:43:15 86° SW 19:48:28 10° NW
Tiangong 0.6 19:40:39 10° SW 19:41:06 13° SW 19:41:06 13° SW
CZ-4 R/B 3.8 19:47:05 10° SW 19:49:59 20° W 19:52:57 10° NW
SPOT 5 2.6 19:54:01 76° NNE 19:54:01 76° NNE 19:58:06 10° NNW
ARIANE 6 FM1 Upper Stage 3.0 19:54:21 10° SW 19:58:12 64° W 19:58:12 64° W
Cosmos 2369 Rocket 2.9 19:53:53 10° NW 19:59:23 50° WSW 20:01:29 34° SSW
Terra 2.5 20:00:58 42° NNE 20:00:58 42° NNE 20:04:29 10° N
Okean 2 4.0 19:56:07 10° N 19:59:08 50° NNW 19:59:08 50° NNW
BREEZE-M DEB (TANK) 3.5 19:45:03 10° W 20:02:16 85° N 20:03:29 59° E
Aureole 3 3.9 19:59:22 10° N 20:03:54 80° NE 20:03:54 80° NE
Okean 1-7 3.7 20:04:13 10° N 20:07:26 50° NNW 20:07:26 50° NNW
Cosmos 2228 Rocket 4.3 20:04:35 10° NNW 20:08:51 39° W 20:10:04 33° SW
Cosmos 1633 Rocket 3.5 20:09:43 59° WNW 20:09:43 59° WNW 20:13:55 10° N
Resurs 01 Rocket 3.9 20:07:53 11° SW 20:11:05 21° W 20:14:29 10° NW
MetOp-B 4.1 20:11:40 73° SSW 20:12:05 78° WSW 20:17:29 10° NNW
Cosmos 1538 Rocket 4.0 20:13:37 75° NNE 20:13:37 75° NNE 20:18:32 10° NNE
Okean-O 3.3 20:17:08 52° WNW 20:17:08 52° WNW 20:21:03 10° NNW
MOS 1 Rocket 3.6 20:20:11 73° WSW 20:20:12 73° WSW 20:25:37 10° NNW
Spot 2 Rocket 4.1 20:23:41 48° NNE 20:23:41 48° NNE 20:27:28 10° N
SL-08 ROCKET BODY 4.3 20:17:01 10° N 20:23:12 87° E 20:23:16 87° ESE
ISS -0.9 20:21:09 10° WNW 20:22:09 18° WNW 20:22:09 18° WNW
ERS-1 Rocket 3.3 20:26:14 63° NNW 20:26:14 63° NNW 20:30:28 10° NNW
IRS-1A Rocket 4.3 20:27:24 76° WSW 20:27:26 76° WSW 20:33:05 10° NNW
ACS3 Solar Sail 3.3 20:33:51 17° SW 20:37:57 33° W 20:43:40 10° NNW
SL-16 R/B 4.3 20:35:00 10° W 20:39:37 25° NW 20:44:15 10° N
SPOT 3 Rocket 4.4 20:41:30 44° N 20:41:30 44° N 20:45:02 10° NNW
Meteor 2-5 Rocket 4.5 20:40:16 10° N 20:44:37 46° NNE 20:44:37 46° NNE
Cosmos 1943 4.0 20:49:01 27° WSW 20:51:48 48° NW 20:57:18 10° NNE
Ariane Rocket 4.1 20:57:45 40° NNW 20:57:45 40° NNW 21:01:02 10° NNW
Cosmos 1697 Rocket 4.3 20:55:03 10° NNW 20:58:31 26° NNE 20:58:31 26° NNE
ATLAS 2AS CENTAUR R/B 3.4 20:57:35 10° NW 21:03:49 43° NNE 21:03:49 43° NNE
Cosmos 1655 Rocket 4.3 20:57:56 10° NNW 21:03:30 65° NW 21:03:30 65° NW
USA 267 3.8 21:18:35 49° NNE 21:18:43 49° NNE 21:24:58 10° NW
Terra 4.3 21:39:41 17° WNW 21:39:41 17° WNW 21:41:23 10° NW
Cosmos 1980 Rocket 4.2 21:58:24 10° NNW 22:00:49 23° N 22:00:49 23° N
Cosmos 2344 4.2 22:08:06 10° NW 22:15:07 64° WNW 22:15:07 64° WNW
ATLAS 2AS CENTAUR R/B 4.4 22:48:38 10° NW 22:51:13 24° NW 22:51:13 24° NW
Cosmos 2322 Rocket 4.5 23:04:52 10° N 23:07:17 19° NNE 23:07:17 19° NNE
SL-16 R/B 4.5 23:33:13 10° NNW 23:34:52 19° NNW 23:34:52 19° NNW
Cosmos 2333 Rocket 4.4 23:49:17 10° NNW 23:51:31 21° N 23:51:31 21° N
